CAPE
1025 989 957 1325 1415 1339 1264 1173 984 834 655 591 668 748 713 737 495 602 673 638 667 762 612 429 316 255 358 472 510 576 568 420 321 380 305 258 274 298 322 357 203 86 31
1077 1232 1110 1240 1421 1463 1439 1388 1288 1144 987 889 808 864 869 841 741 765 777 783 680 764 660 474 436 367 296 387 393 405 481 571 476 396 229 244 142 91 86 129 320 404 356
118 1207 1308 1276 1410 1506 1582 1567 1512 1410 1276 1163 985 861 792 817 770 725 807 775 791 709 624 440 392 513 453 450 518 522 532 506 444 454 312 146 111 66 55 69 108 306 462
179 297 1333 1302 1376 1370 1474 1668 1643 1569 1397 1339 1189 962 769 735 823 688 707 734 806 731 646 473 321 402 475 504 553 530 470 454 391 233 275 69 50 41 35 70 123 214 197
433 502 1082 1138 1441 1563 1497 1637 1751 1738 1503 1231 1147 1105 868 722 732 787 805 817 762 777 705 589 361 250 256 319 445 529 565 542 441 388 266 216 179 126 136 79 87 106 112
365 675 834 1083 1137 1547 1613 1575 1655 1658 1642 1344 1129 1022 979 823 714 801 822 731 678 678 693 706 528 423 341 320 341 436 498 499 478 359 254 276 141 170 67 31 54 47 60
275 469 950 1119 1046 1084 1066 814 1086 1324 1551 1430 1292 1024 975 842 709 614 693 671 613 553 583 613 586 501 393 437 375 323 312 420 438 503 346 314 196 76 24 65 82 82 82
63 226 381 642 993 1055 986 494 305 379 415 534 1194 1110 943 895 665 621 550 559 632 608 553 568 560 561 462 366 349 426 364 270 276 262 240 244 228 130 143 168 108 121 110
143 133 227 213 398 579 725 690 615 409 137 39 0 729 928 703 661 571 592 538 541 564 611 649 627 584 513 470 432 390 426 400 294 256 320 345 365 375 308 275 217 151 106
46 393 524 175 143 76 39 4 70 101 171 264 20 0 665 725 566 513 515 781 827 830 841 813 728 665 664 651 562 518 437 393 354 368 422 421 406 389 496 490 320 266 224
16 241 148 612 565 350 253 102 20 0 0 57 7 209 104 202 161 227 400 606 761 847 848 786 804 788 771 687 592 533 469 396 429 465 430 362 415 372 479 477 338 209 180
413 497 360 486 613 647 545 386 175 1 0 21 38 1 0 0 0 0 7 175 441 752 801 852 798 863 780 698 656 514 614 449 411 361 371 418 436 457 421 361 231 162 78
123 540 658 560 527 502 249 281 290 118 1 41 18 3 2 0 0 0 0 0 150 401 435 661 799 876 813 593 603 658 567 425 344 342 368 357 419 411 427 371 260 166 90
0 101 379 373 404 452 140 131 218 324 577 177 54 0 0 0 0 0 0 0 8 142 202 156 214 405 544 622 492 615 559 364 428 447 275 357 382 293 330 387 336 228 178
256 335 266 278 336 373 358 97 88 189 115 95 16 0 0 0 0 0 0 0 61 15 1 44 67 17 255 461 490 391 301 378 468 441 355 380 384 323 360 356 298 202 215
510 470 323 289 209 122 216 36 83 48 278 394 487 327 74 1 4 0 0 0 0 0 0 0 0 0 40 398 422 357 286 376 365 355 296 333 414 375 350 337 345 171 129
261 240 314 360 266 224 265 205 207 265 301 194 227 214 221 177 87 10 0 0 0 1 0 0 0 0 22 128 296 236 227 365 366 360 305 317 399 381 387 276 212 175 217
113 236 152 163 155 155 153 192 225 236 239 289 185 49 26 14 4 3 0 10 3 0 0 0 0 0 0 25 130 91 134 204 321 325 332 311 359 350 360 278 194 165 162
68 130 105 38 42 33 24 26 48 70 101 119 116 132 134 87 9 0 0 0 1 0 0 1 7 89 47 79 154 131 105 111 157 263 308 300 307 349 330 318 301 300 151
61 14 0 0 0 0 0 0 0 0 0 0 21 55 101 113 119 59 0 0 0 1 7 76 76 126 217 134 106 105 90 49 62 78 194 238 333 311 244 248 201 191 143
53 5 0 0 0 0 0 0 0 0 0 0 0 0 0 13 32 86 58 37 47 32 24 39 80 95 138 76 30 37 67 86 91 85 84 212 209 146 108 74 167 222 154
31 3 3 0 0 0 0 0 0 0 0 0 0 0 0 0 0 7 20 54 57 32 39 44 64 13 0 0 2 1 1 0 46 120 201 251 144 43 48 42 59 85 107
78 70 7 2 0 0 0 0 0 0 0 0 0 0 0 0 0 0 0 1 3 17 14 14 7 0 0 0 0 0 0 0 0 0 1 6 37 22 5 26 95 36 22
36 30 26 5 0 0 0 0 0 0 0 0 0 0 0 0 0 0 0 0 0 0 0 0 0 0 0 0 0 0 0 0 0 0 0 0 0 0 7 9 30 36 80
15 13 7 4 2 0 0 0 0 0 0 0 0 0 0 0 0 0 0 0 0 0 0 0 0 0 0 0 0 0 0 0 0 0 0 0 0 0 0 1 23 29 29
13 5 0 0 0 0 0 0 0 0 0 0 0 0 0 0 0 0 0 0 0 0 0 0 0 0 0 0 0 0 0 0 0 0 0 0 1 0 0 0 0 1 3
CIN
-220 -342 -402 -458 -476 -484 -480 -453 -470 -484 -491 -481 -385 -294 -250 -173 -163 -115 -95 -93 -77 -62 -74 -85 -91 -91 -73 -65 -53 -46 -44 -52 -70 -37 -45 -59 -55 -42 -46 -54 -57 -86 -101
-235 -267 -315 -436 -511 -487 -477 -473 -453 -450 -453 -449 -433 -325 -253 -194 -151 -105 -78 -69 -68 -66 -65 -69 -70 -81 -76 -60 -49 -46 -43 -37 -39 -18 -36 -21 -49 -93 -83 -62 -46 -49 -65
-461 -265 -318 -404 -487 -497 -532 -502 -470 -444 -434 -388 -383 -370 -296 -233 -189 -162 -85 -67 -59 -66 -61 -70 -66 -56 -55 -47 -49 -58 -55 -44 -41 -32 -14 -37 -81 -107 -110 -92 -74 -58 -59
-462 -425 -295 -411 -439 -383 -274 -205 -246 -334 -363 -367 -350 -408 -404 -353 -289 -254 -174 -104 -61 -57 -64 -65 -70 -56 -49 -46 -45 -53 -50 -39 -27 -55 -47 -65 -73 -67 -93 -110 -104 -109 -103
-435 -434 -283 -343 -344 -320 -306 -268 -134 -106 -149 -152 -180 -277 -387 -378 -312 -268 -175 -109 -80 -49 -48 -54 -66 -65 -64 -56 -47 -40 -44 -34 -38 -44 -60 -54 -54 -60 -32 -75 -70 -85 -97
-447 -367 -416 -388 -394 -274 -231 -227 -195 -157 -90 -128 -193 -151 -185 -349 -356 -289 -209 -159 -117 -66 -52 -49 -49 -56 -57 -51 -54 -46 -32 -30 -35 -49 -59 -39 -39 -41 -48 -38 -80 -78 -89
-432 -447 -298 -330 -440 -439 -329 -457 -389 -281 -162 -45 -114 -224 -187 -210 -314 -326 -279 -241 -183 -154 -80 -54 -50 -54 -56 -49 -53 -45 -42 -32 -34 -37 -45 -50 -52 -63 -59 -30 -62 -71 -95
-560 -508 -537 -465 -344 -408 -407 -540 -601 -598 -542 -413 -16 -12 -136 -212 -218 -292 -295 -286 -228 -172 -135 -88 -66 -53 -64 -58 -46 -35 -35 -45 -39 -45 -49 -49 -60 -67 -59 -31 -22 -27 -62
-479 -507 -510 -614 -567 -450 -394 -333 -429 -455 -614 -633 -0 -67 -54 -55 -200 -176 -200 -209 -195 -184 -131 -101 -74 -57 -66 -61 -46 -35 -26 -30 -42 -48 -46 -51 -53 -47 -38 -33 -31 -27 -66
-456 -375 -404 -502 -542 -642 -648 -359 -281 -234 -470 -383 -283 -0 -12 -66 -74 -118 -137 -98 -86 -87 -84 -70 -79 -67 -69 -60 -46 -33 -33 -27 -36 -42 -38 -40 -45 -41 -29 -26 -42 -25 -9
-351 -381 -436 -315 -276 -332 -360 -227 -448 -0 -0 -433 -384 -62 -122 -225 -128 -113 -91 -84 -84 -63 -54 -51 -50 -57 -57 -68 -57 -50 -42 -37 -30 -26 -28 -48 -46 -47 -17 -7 -31 -49 -36
-289 -253 -307 -242 -192 -160 -178 -235 -378 -228 -0 -377 -209 -18 -0 -0 -0 -0 -353 -175 -80 -53 -69 -72 -65 -68 -51 -58 -46 -46 -42 -42 -37 -27 -31 -38 -43 -43 -23 -29 -23 -54 -77
-356 -208 -175 -130 -128 -52 -145 -116 -160 -305 -5 -86 -142 -194 -2 -0 -0 -0 -0 -0 -150 -81 -89 -65 -61 -51 -44 -31 -42 -44 -37 -66 -57 -36 -33 -53 -45 -60 -39 -38 -21 -23 -47
-0 -303 -166 -160 -80 -6 -47 -59 -48 -65 -76 -59 -212 -0 -0 -0 -0 -0 -0 -0 -112 -28 -70 -92 -80 -64 -70 -65 -33 -37 -43 -52 -45 -36 -46 -36 -29 -71 -68 -65 -39 -31 -18
-118 -114 -127 -109 -75 -4 -1 -79 -92 -135 -156 -175 -176 -0 -0 -0 -0 -0 -0 -0 -58 -81 -15 -149 -55 -39 -39 -61 -38 -44 -54 -57 -46 -35 -32 -36 -32 -51 -59 -72 -82 -45 -23
-7 -13 -56 -41 -75 -64 -53 -152 -72 -140 -127 -100 -93 -254 -390 -90 -402 -0 -0 -0 -0 -43 -0 -0 -0 -0 -75 -83 -55 -30 -35 -39 -38 -40 -40 -43 -34 -33 -55 -43 -61 -82 -51
-10 -10 -19 -3 -35 -21 -55 -110 -107 -92 -158 -280 -225 -266 -339 -319 -286 -416 -0 -0 -0 -10 -0 -0 -0 -0 -71 -80 -50 -52 -25 -25 -30 -36 -38 -41 -41 -44 -40 -53 -62 -99 -68
-3 -4 -13 -22 -34 -18 -25 -57 -96 -143 -137 -130 -195 -276 -335 -321 -142 -134 -0 -260 -195 -0 -0 -0 -0 -0 -0 -102 -54 -87 -73 -54 -31 -33 -40 -45 -40 -37 -39 -42 -49 -61 -88
-4 -1 -2 -78 -113 -122 -97 -137 -126 -144 -143 -117 -88 -53 -94 -178 -141 -0 -0 -1 -5 -14 -0 -30 -48 -60 -84 -61 -62 -117 -104 -79 -71 -45 -58 -61 -48 -56 -42 -35 -37 -51 -75
-0 -23 -0 -0 -0 -0 -0 -0 -0 -0 -0 -0 -247 -228 -146 -147 -135 -201 -1 -0 -1 -26 -34 -53 -38 -44 -39 -49 -43 -35 -57 -65 -76 -135 -88 -86 -64 -70 -69 -70 -57 -72 -128
-12 -30 -0 -0 -0 -0 -0 -0 -0 -0 -0 -0 -0 -0 -0 -231 -254 -145 -182 -153 -120 -112 -75 -73 -64 -68 -44 -32 -25 -39 -53 -64 -58 -61 -134 -98 -108 -132 -142 -149 -85 -97 -112
-18 -58 -72 -0 -0 -0 -0 -0 -0 -0 -0 -0 -0 -0 -0 -0 -0 -174 -211 -130 -101 -96 -73 -57 -72 -61 -0 -7 -35 -23 -52 -21 -79 -68 -88 -119 -132 -172 -196 -202 -152 -158 -194
-23 -23 -41 -63 -0 -0 -0 -0 -0 -0 -0 -0 -0 -0 -0 -0 -0 -0 -0 -25 -15 -165 -131 -120 -86 -0 -0 -0 -0 -0 -0 -0 -0 -0 -17 -97 -146 -190 -179 -190 -149 -187 -224
-21 -35 -45 -61 -0 -0 -0 -0 -0 -0 -0 -0 -0 -0 -0 -0 -0 -0 -0 -0 -0 -0 -0 -0 -0 -0 -0 -0 -0 -0 -0 -0 -0 -0 -0 -0 -0 -0 -145 -135 -141 -172 -198
-40 -23 -21 -24 -19 -0 -0 -0 -0 -0 -0 -0 -0 -0 -0 -0 -0 -0 -0 -0 -0 -0 -0 -0 -0 -0 -0 -0 -0 -0 -0 -0 -0 -0 -0 -0 -0 -0 -0 -50 -150 -129 -148
-36 -31 -0 -0 -0 -0 -0 -0 -0 -0 -0 -0 -0 -0 -0 -0 -0 -0 -0 -0 -0 -0 -0 -0 -0 -0 -0 -0 -0 -0 -0 -0 -0 -0 -0 -0 -0 -0 -0 -0 -0 -64 -92
Wind_Speed
20 12 11 11 12 17 16 16 17 20 19 20 20 20 24 23 22 24 24 27 28 27 22 16 16 12 10 19 7 10 14 16 14 14 18 21 23 27 27 24 20 14 11
10 13 17 16 17 19 19 18 19 20 21 18 19 17 18 21 24 26 25 26 26 26 25 21 18 15 9 11 7 7 16 17 12 17 20 26 29 29 29 28 28 26 20
24 13 16 22 17 23 24 23 21 18 19 17 15 11 12 8 18 24 27 26 25 23 25 23 21 19 17 14 10 10 9 12 15 14 16 20 23 24 22 22 23 28 29
29 21 16 16 17 25 25 29 17 14 16 15 14 17 16 18 20 21 21 22 23 24 24 23 21 20 20 21 14 9 9 11 14 19 17 21 19 21 25 22 21 23 26
28 20 13 16 23 20 18 20 25 28 20 24 19 12 14 14 13 13 18 19 17 20 22 23 21 21 20 23 19 12 11 10 13 9 15 14 21 25 26 28 27 25 25
28 21 16 12 17 18 19 18 23 27 30 28 28 36 36 13 12 12 13 17 18 16 16 19 20 21 21 21 19 15 11 11 11 9 11 15 21 22 25 29 31 31 34
27 25 20 15 15 15 17 18 19 25 28 34 37 33 43 43 15 13 11 11 12 13 18 17 16 16 16 16 13 13 13 12 11 10 9 11 12 21 24 25 29 29 28
28 26 23 20 18 12 16 19 23 24 22 29 39 45 44 36 36 19 14 12 11 11 10 16 17 13 10 10 11 12 13 10 10 9 9 10 13 14 15 19 27 32 30
29 26 27 23 20 17 21 26 26 29 28 28 33 43 48 49 38 35 27 21 18 14 10 10 12 14 11 8 8 11 14 9 9 9 7 7 7 16 20 19 17 20 26
28 26 24 23 26 26 25 27 34 36 33 31 42 44 52 45 40 34 34 30 27 23 20 12 10 10 9 8 8 7 7 10 8 7 8 13 7 6 5 6 5 5 15
30 30 31 28 23 23 25 28 29 35 42 35 39 43 29 25 29 30 33 34 29 26 25 24 19 16 12 10 8 7 6 6 7 8 9 14 6 12 6 2 2 6 1
32 33 31 33 31 31 33 35 32 30 23 20 23 23 14 13 21 27 28 29 34 31 25 24 24 24 19 16 13 10 9 7 9 9 9 8 2 2 0 4 8 2 1
33 31 33 34 33 31 29 28 29 18 18 18 14 16 26 19 22 31 23 30 31 32 31 27 25 26 24 22 21 15 12 10 9 9 10 6 3 2 2 5 4 1 5
32 31 32 33 32 28 23 22 23 12 5 11 3 10 4 11 12 15 19 31 35 33 26 29 29 29 24 21 22 22 16 13 14 12 13 11 5 4 2 3 3 7 7
29 31 30 30 29 24 21 17 19 15 1 6 8 7 7 6 7 6 6 2 11 10 23 24 28 31 25 19 23 22 20 18 19 19 14 15 11 5 4 5 5 7 6
26 23 25 26 24 21 19 16 14 14 12 15 16 19 16 11 6 5 4 7 21 34 33 21 31 31 34 27 35 28 25 21 22 23 21 19 18 12 8 4 4 5 6
26 18 20 21 19 14 14 14 13 11 10 12 13 14 15 14 14 11 11 11 29 35 9 33 27 27 38 38 37 30 29 26 26 25 25 23 21 14 14 9 6 6 4
22 18 18 17 17 13 11 11 11 11 12 12 13 15 16 17 14 10 7 10 31 34 36 33 30 32 30 24 23 24 26 29 28 26 26 28 27 16 16 15 15 16 14
18 14 15 14 14 12 12 12 12 13 13 14 14 15 14 15 17 19 19 15 17 21 21 23 24 9 10 11 11 16 20 30 23 25 24 27 29 24 17 18 19 21 22
12 12 13 13 13 12 12 13 13 13 13 14 15 17 17 17 17 13 12 12 12 11 14 15 16 15 11 9 7 10 14 32 32 31 27 27 27 29 23 19 23 23 22
13 15 12 11 11 12 12 12 12 13 15 16 17 18 18 18 18 17 14 13 12 12 13 14 15 16 16 14 11 13 29 29 28 27 24 20 26 20 26 26 27 29 28
15 14 9 8 10 12 13 13 14 15 17 17 17 18 19 20 20 18 17 14 13 12 14 14 16 16 16 19 18 24 25 27 30 33 29 29 32 28 28 26 28 32 30
18 11 10 10 12 14 15 16 17 17 18 18 19 18 19 20 19 19 18 16 16 15 14 16 15 14 15 15 19 18 19 23 26 30 31 34 36 35 32 33 33 31 32
14 14 13 13 14 16 17 18 19 19 19 19 20 20 20 19 19 18 20 18 17 16 17 17 17 16 15 17 17 18 18 21 25 26 29 29 29 32 35 35 35 33 33
14 15 16 17 17 17 18 19 19 20 20 19 20 21 20 20 20 21 22 17 17 18 18 17 17 18 19 19 21 24 27 28 29 32 32 34 35 36 34 34 32 30 32
14 16 18 18 18 19 20 20 21 22 21 20 21 21 20 20 20 22 22 17 15 17 17 17 18 18 17 19 22 25 27 28 29 29 31 33 33 36 37 37 37 32 30
Wind_Direction
210 211 208 202 191 180 179 181 176 173 166 165 167 170 174 173 173 176 176 180 182 183 177 177 177 178 182 176 250 271 275 277 287 291 291 288 288 280 280 288 294 299 297
249 222 208 205 200 191 187 185 184 179 177 171 168 167 170 174 178 180 180 181 182 182 181 179 178 181 199 257 215 232 276 280 285 287 289 284 283 285 282 284 284 287 294
301 240 222 206 210 196 192 190 187 188 183 179 171 162 160 167 175 180 184 184 184 182 182 182 183 183 183 190 243 258 244 274 285 285 292 295 290 295 302 295 290 287 285
314 286 241 241 235 252 263 256 246 206 197 194 186 178 178 175 175 178 179 180 182 184 185 185 183 185 187 191 195 226 239 270 280 288 284 287 298 299 298 303 302 297 291
335 322 293 273 264 261 255 255 257 257 258 260 258 208 189 185 180 175 176 178 179 183 185 185 185 188 190 197 198 207 213 249 278 269 293 285 287 290 294 294 297 298 296
334 330 311 305 287 275 262 257 253 255 255 257 255 252 216 197 193 190 187 182 181 183 186 187 189 193 194 197 199 203 220 233 223 246 275 287 292 291 293 291 292 292 291
327 317 314 304 293 285 272 270 262 256 255 255 251 254 243 238 210 211 210 203 198 191 189 190 195 195 197 198 206 212 215 225 238 248 245 274 281 294 295 295 292 295 302
326 315 320 318 296 285 272 273 268 263 259 258 253 248 248 254 255 256 241 240 227 228 206 190 192 202 214 213 207 210 215 231 256 243 263 275 290 294 291 293 295 296 298
322 321 307 308 308 306 282 276 271 269 265 259 263 252 246 244 252 256 260 260 263 261 240 215 208 202 212 236 238 210 206 232 231 219 248 234 279 297 295 297 298 302 301
325 330 327 317 299 300 298 293 276 273 270 257 276 265 249 249 252 256 259 261 263 266 269 259 253 256 232 236 251 240 229 211 254 227 208 199 202 206 285 297 225 262 304
323 324 316 319 318 308 302 301 301 294 280 267 269 265 270 254 258 259 260 260 261 263 267 268 271 272 266 263 258 255 252 238 262 277 198 192 192 185 316 332 159 179 196
316 314 320 311 309 302 297 299 301 306 292 286 271 255 279 258 277 268 264 265 263 264 264 265 267 270 268 268 267 264 268 259 273 282 287 190 263 202 304 347 172 123 87
318 324 312 301 305 308 307 301 303 316 298 282 246 259 279 285 296 272 277 267 270 267 267 265 262 265 267 268 265 266 269 266 266 278 284 198 225 212 295 324 334 6 356
316 320 317 316 314 314 307 314 319 332 295 227 200 248 17 319 306 317 288 274 271 270 258 267 269 265 266 264 261 264 266 266 270 275 282 284 275 280 260 305 316 327 330
319 318 323 325 334 297 298 331 329 339 306 242 262 318 360 34 336 53 360 42 192 256 266 274 266 264 262 260 262 263 263 266 268 273 278 282 284 255 275 308 310 315 322
325 326 326 318 306 283 295 314 336 339 269 273 306 306 318 323 91 116 103 151 189 221 250 204 220 257 257 265 253 259 262 264 265 268 274 279 284 286 282 263 300 318 315
315 331 330 325 316 246 280 299 309 331 323 323 319 317 317 313 305 132 139 169 204 218 271 264 277 264 240 246 256 259 261 263 264 267 269 275 281 286 292 287 279 287 265
312 326 327 323 309 300 311 332 322 334 354 343 333 318 307 287 308 343 347 175 250 259 254 261 265 212 204 267 270 268 266 264 266 268 270 272 274 278 285 292 297 300 302
308 335 327 324 318 319 326 345 339 334 338 345 352 358 1 334 316 295 303 317 298 281 272 280 276 235 235 260 271 274 274 265 271 272 274 274 275 278 277 284 289 294 297
8 357 338 328 315 318 328 350 339 326 323 319 325 343 358 357 353 354 354 351 331 326 309 304 288 279 272 277 262 261 272 270 274 276 278 276 277 277 278 281 286 291 294
8 15 355 340 315 312 329 332 327 326 323 335 344 346 344 346 346 355 9 358 353 344 344 325 321 295 289 296 289 291 269 272 275 279 281 282 280 281 280 281 284 285 289
18 18 348 309 325 330 330 322 320 320 345 352 349 352 358 12 7 355 354 358 357 349 336 329 321 313 312 302 297 285 283 284 282 279 285 281 278 283 284 282 284 285 288
45 357 331 306 319 324 331 333 327 334 343 348 345 352 355 351 356 353 360 6 358 349 341 339 339 328 326 325 316 315 304 304 296 286 287 285 282 281 285 283 285 286 284
4 357 346 319 310 318 329 335 334 337 339 341 341 336 339 338 341 339 317 344 1 1 345 332 332 328 333 330 330 329 323 318 308 305 300 300 296 289 286 287 284 287 284
334 342 340 323 327 328 327 329 329 331 332 336 335 333 334 335 332 326 320 335 343 340 338 341 333 326 324 326 320 313 310 310 308 301 300 298 294 292 291 290 291 290 286
311 319 327 325 320 318 314 320 325 331 332 328 328 326 325 331 335 322 325 343 346 343 339 340 336 333 331 328 323 320 317 317 313 310 305 302 301 296 290 288 287 289 287